Powrót do katalogu

STARLINK-34336

AktywnyŁącznośćVLEO
NORAD 64462·PAYLOAD·🇺🇸 United States

Wystrzelony Jun 18, 2025 z Cape Canaveral Space Force Station

Loading…

Następne Przeloty (najbliższe 24 godziny)

TLE

ŚwieżeSource: CelesTrak SupGP

Epoka: Sep 15, 2026, 03:08 UTC

1 64462C 25130AA  26258.13104167  .00004777  00000+0  15360-3 0  2589
2 64462  53.1592 289.6856 0001272  87.2677 183.5167 15.31705751    19

Śledź STARLINK-34336 w czasie rzeczywistym z AllMySat

Download on the App Store